Wind_Speed
33 33 31 29 29 27 27 25 25 25 25 26 25 24 23 23 23 23 24 25 26 27 28 30 31 32 34 35 36 38 39 40 41 41 42 44 45 46 46 45 45 45 44
31 31 30 29 29 28 27 26 24 23 24 24 24 25 25 26 26 27 27 28 29 29 31 32 33 34 35 36 37 38 39 39 40 41 42 43 43 43 43 43 43 42 40
29 29 28 27 27 27 27 26 25 25 25 26 26 26 27 27 28 29 30 30 30 31 33 33 34 35 36 36 37 38 38 39 40 41 41 41 41 41 40 40 39 37 35
27 27 27 26 26 27 27 27 27 28 28 28 28 28 28 29 29 30 31 31 32 32 33 34 34 35 36 36 36 37 38 38 39 39 39 39 38 38 37 35 33 32 31
24 25 25 26 26 27 27 28 28 29 29 29 30 30 30 29 29 30 31 31 32 33 33 34 34 35 35 35 35 36 36 37 37 37 36 36 35 34 32 30 29 28 28
22 24 25 25 25 26 27 28 28 29 29 29 28 28 28 28 29 30 31 32 32 33 33 33 34 34 34 34 34 35 35 35 34 34 33 32 31 29 28 26 25 25 25
21 22 23 24 25 26 25 25 26 26 26 26 27 27 27 28 29 30 30 31 32 32 32 32 32 32 33 33 33 33 33 32 32 31 30 29 27 26 25 24 24 23 23
20 21 22 22 22 22 23 23 23 23 24 24 24 25 26 28 29 30 30 30 30 31 31 31 31 31 31 31 31 30 30 29 29 28 27 25 24 23 22 22 21 21 20
17 18 19 20 20 20 21 22 22 22 23 24 24 25 26 27 27 28 28 29 29 29 29 29 29 29 29 29 28 28 27 27 26 25 24 22 21 20 20 19 18 18 18
16 17 18 19 18 19 20 20 20 20 21 22 23 24 24 24 25 26 26 27 27 26 27 27 27 27 27 26 26 25 25 24 22 21 21 20 19 19 18 17 17 17 16
14 15 15 16 16 17 17 17 18 19 20 20 21 22 23 23 24 24 24 24 24 24 24 24 24 24 23 23 22 22 21 20 20 19 19 19 18 17 16 16 15 15 15
12 12 13 13 14 15 15 16 17 18 19 19 20 21 21 21 21 22 22 22 22 22 22 21 21 21 20 20 19 18 18 18 17 17 17 16 16 15 14 13 13 13 13
10 11 12 14 14 15 15 15 16 17 18 18 19 19 20 20 20 20 19 19 19 19 19 19 19 18 18 18 17 17 16 16 15 15 15 14 13 13 12 12 12 12 12
10 10 11 12 12 12 13 14 15 16 16 17 17 17 17 17 17 16 16 16 16 17 17 17 16 16 16 16 16 15 15 15 14 14 13 13 12 11 11 11 10 10 10
9 10 10 11 11 11 12 13 13 14 14 14 14 14 14 14 14 14 14 14 15 15 15 15 15 15 15 15 15 15 14 14 13 13 12 11 10 10 10 9 9 8 7
8 9 10 10 11 11 11 12 12 12 12 12 12 12 13 12 12 12 13 13 13 13 13 14 14 14 14 14 14 14 13 13 12 11 10 9 9 8 8 7 7 6 5
8 9 9 9 9 9 10 10 11 10 10 10 10 10 10 10 10 11 11 11 11 11 12 12 12 12 13 13 13 12 12 11 10 9 9 8 7 7 6 6 5 4 4
6 7 7 7 8 8 8 8 8 8 8 8 8 8 8 8 8 8 8 8 9 10 10 11 11 11 11 11 11 11 10 9 8 8 7 7 6 5 5 4 3 3 3
4 4 4 5 5 6 5 5 5 5 5 5 5 5 5 5 5 6 6 7 8 8 9 9 10 10 10 10 10 9 8 8 7 6 6 5 4 4 3 3 2 2 3
3 3 3 4 4 3 3 3 3 3 3 3 3 3 3 4 4 5 6 6 7 8 9 9 9 9 9 9 9 8 7 6 6 5 4 3 2 2 2 2 2 3 4
3 3 3 3 3 3 3 2 2 2 2 3 3 3 4 4 5 5 6 7 8 9 9 9 9 9 9 8 8 7 6 5 5 4 3 2 2 2 2 3 3 4 4
6 5 5 5 5 5 4 4 4 4 4 4 4 5 5 5 6 6 7 8 9 9 9 10 10 9 9 8 8 7 6 5 5 4 4 4 4 4 4 4 4 4 5
9 9 9 8 8 7 7 7 7 6 6 6 6 6 6 7 7 8 8 9 10 10 10 11 10 10 10 9 8 7 7 6 6 6 6 6 5 5 5 5 5 5 6
12 12 11 11 11 10 10 9 9 8 8 7 7 8 8 8 8 9 9 10 11 11 11 11 12 12 11 10 10 9 9 8 8 8 7 7 7 7 6 6 6 6 6
13 13 13 13 13 12 12 11 10 10 9 9 9 9 9 9 9 10 10 11 11 12 12 12 12 12 12 12 11 11 10 10 9 9 8 8 8 7 7 7 6 6 7
15 15 15 14 14 14 13 12 12 12 11 11 10 10 10 10 10 10 10 11 11 12 12 12 12 12 12 12 11 11 11 10 10 9 9 8 8 7 6 6 6 7 7
Wind_Direction
247 250 250 251 254 255 257 259 262 264 266 267 267 266 267 268 268 268 269 271 273 275 277 279 281 282 285 288 291 292 293 293 294 296 297 298 299 299 299 299 300 300 300
246 248 249 251 254 256 257 257 260 260 263 265 266 266 266 267 269 270 271 272 274 277 280 283 285 287 289 291 292 293 293 295 296 297 298 298 298 299 300 300 301 302 303
248 249 249 253 255 256 258 259 262 265 265 267 268 268 267 269 270 270 273 275 277 279 283 285 287 289 290 291 292 293 295 296 298 298 298 299 299 300 301 302 304 305 306
247 249 250 254 256 256 258 259 263 266 266 266 268 270 268 270 271 272 274 277 280 282 285 287 288 289 291 293 293 294 296 297 298 299 299 300 300 301 302 304 305 307 309
247 249 250 251 253 255 257 257 261 263 264 266 267 268 267 268 272 275 276 279 281 283 286 288 289 290 292 293 295 296 296 297 298 300 301 301 302 303 303 304 305 308 311
247 248 249 250 251 255 256 257 258 261 263 265 265 266 266 269 273 276 279 281 283 285 287 288 290 292 293 294 296 296 297 298 300 300 301 302 303 303 304 306 307 309 312
247 248 248 251 252 253 254 255 257 259 263 264 265 267 267 270 274 277 280 282 284 286 288 290 291 293 293 295 296 296 298 300 300 300 301 302 303 304 304 305 308 311 313
250 251 251 252 254 255 255 259 260 262 263 264 267 268 269 272 276 280 281 283 285 287 289 290 291 292 294 295 296 298 299 300 300 300 301 302 302 303 304 307 310 313 314
251 251 250 252 254 256 260 261 263 262 263 265 268 270 274 277 279 280 282 284 286 288 289 291 292 293 295 296 297 298 298 299 300 300 300 301 302 304 306 309 312 314 315
252 253 252 253 256 260 263 265 266 267 268 271 273 275 277 278 281 283 284 285 287 288 290 292 293 294 295 296 297 297 298 299 300 301 301 301 302 305 306 308 312 313 316
250 252 253 255 259 261 263 267 269 270 273 276 277 277 279 281 282 283 284 286 288 289 291 293 294 296 297 298 299 299 300 301 302 302 302 302 302 304 306 309 311 312 314
255 255 258 262 264 263 267 270 273 275 277 279 281 282 282 283 283 284 285 286 288 290 291 293 295 297 298 299 301 302 302 303 303 303 303 303 304 305 306 307 308 309 312
259 260 264 267 267 269 270 273 276 279 280 282 281 281 281 282 283 284 285 286 288 290 292 294 296 298 299 300 301 302 303 305 305 305 305 305 306 307 307 308 309 311 314
266 266 267 268 271 273 275 278 280 281 282 283 282 281 280 280 281 283 284 286 289 292 295 297 299 301 302 303 305 305 305 306 305 304 305 306 307 309 310 310 311 312 314
267 268 271 273 274 277 280 282 284 284 285 284 282 282 279 279 281 283 286 289 293 295 297 300 301 303 304 306 306 306 306 305 305 305 307 307 308 310 311 310 311 313 316
274 276 276 276 277 279 282 284 285 286 287 285 283 281 280 281 282 284 288 293 296 298 301 302 303 304 305 306 307 307 306 306 307 308 308 308 309 312 312 311 314 317 321
278 278 278 278 280 283 284 285 284 284 285 287 286 284 284 284 285 288 293 297 301 304 306 307 307 308 309 310 310 310 309 309 310 311 310 310 310 314 315 317 320 326 334
283 279 279 282 285 288 289 288 286 287 289 291 291 289 289 290 292 297 303 308 311 312 313 314 314 315 316 316 316 316 315 315 315 314 313 312 314 318 322 328 336 350 10
301 294 292 295 297 298 298 296 296 299 299 301 303 305 307 309 315 319 321 323 324 325 325 326 325 325 325 325 325 324 323 321 321 320 317 316 319 325 337 352 13 34 44
331 327 329 330 329 331 332 325 327 330 330 335 341 344 346 345 345 341 340 342 342 342 340 339 338 338 338 337 337 335 333 332 331 331 330 331 338 351 9 26 52 63 61
16 17 19 20 17 21 23 24 25 23 19 19 22 24 22 15 8 4 3 1 359 355 354 353 352 352 352 351 351 350 350 351 353 356 1 10 25 44 51 63 75 74 63
52 53 53 53 50 49 50 56 59 60 61 59 53 47 40 32 26 23 21 18 13 11 9 9 8 8 8 8 11 15 19 22 27 36 47 58 65 69 72 74 74 68 59
65 65 65 64 63 63 65 67 69 69 68 66 59 54 49 44 40 38 35 30 27 25 24 23 23 22 22 26 30 34 38 44 51 57 62 67 69 69 69 69 66 60 54
70 69 68 68 68 68 69 70 70 70 69 67 64 59 56 53 50 46 43 39 36 34 34 35 35 35 37 40 43 48 52 56 59 62 65 68 69 69 68 65 60 55 48
72 71 69 68 68 68 69 70 70 69 68 67 66 64 61 58 55 51 47 43 41 40 41 41 41 42 44 47 51 54 56 59 61 63 65 65 66 65 61 56 50 43 33
72 71 70 69 69 69 69 70 69 69 68 67 65 63 60 57 54 51 48 46 45 43 43 43 44 45 47 49 52 54 56 57 59 59 60 60 58 54 46 40 32 22 13
Height
5755 5758 5761 5763 5766 5769 5771 5773 5775 5777 5779 5780 5781 5782 5783 5783 5784 5784 5785 5786 5786 5786 5786 5785 5784 5784 5782 5781 5779 5777 5775 5772 5770 5767 5764 5760 5757 5753 5749 5745 5741 5737 5732
5749 5752 5755 5757 5760 5763 5765 5767 5769 5771 5772 5774 5775 5776 5777 5778 5778 5779 5780 5780 5780 5780 5779 5778 5777 5776 5774 5773 5771 5769 5766 5763 5761 5758 5754 5751 5747 5743 5739 5735 5731 5727 5723
5744 5747 5749 5752 5754 5756 5759 5761 5763 5765 5766 5768 5769 5770 5771 5771 5772 5773 5773 5773 5773 5773 5772 5771 5770 5768 5767 5765 5762 5760 5757 5755 5752 5748 5745 5742 5738 5734 5730 5726 5722 5717 5714
5738 5741 5743 5746 5748 5750 5753 5755 5757 5759 5760 5761 5762 5763 5764 5765 5766 5766 5766 5766 5766 5766 5765 5764 5762 5760 5759 5757 5754 5752 5749 5746 5743 5739 5736 5733 5729 5725 5722 5718 5714 5710 5707
5733 5736 5738 5740 5742 5744 5746 5749 5751 5752 5753 5754 5756 5757 5758 5758 5759 5759 5759 5759 5759 5758 5757 5756 5754 5753 5751 5748 5746 5743 5740 5738 5734 5731 5728 5724 5721 5717 5714 5710 5707 5704 5700
5728 5731 5733 5735 5737 5739 5740 5742 5744 5745 5747 5747 5749 5750 5751 5751 5752 5752 5752 5752 5751 5750 5750 5748 5746 5744 5743 5740 5738 5735 5732 5729 5726 5723 5720 5717 5713 5710 5707 5704 5701 5699 5695
5724 5726 5728 5729 5731 5733 5734 5736 5737 5739 5740 5741 5742 5743 5744 5745 5745 5745 5745 5745 5744 5743 5742 5741 5739 5737 5735 5732 5730 5727 5724 5721 5718 5716 5713 5710 5707 5704 5702 5699 5696 5693 5690
5719 5721 5723 5724 5725 5727 5728 5730 5731 5732 5734 5735 5736 5736 5737 5738 5738 5738 5738 5738 5737 5736 5735 5733 5731 5729 5727 5725 5722 5719 5717 5714 5711 5709 5706 5704 5701 5699 5696 5694 5691 5688 5685
5715 5716 5718 5720 5721 5722 5724 5725 5726 5727 5728 5729 5730 5730 5731 5731 5732 5731 5731 5731 5730 5729 5727 5725 5724 5722 5719 5717 5715 5713 5711 5708 5705 5703 5700 5698 5696 5694 5691 5689 5687 5684 5682
5711 5713 5714 5715 5716 5718 5719 5720 5721 5722 5723 5724 5724 5725 5725 5725 5725 5725 5724 5724 5723 5722 5720 5718 5717 5715 5713 5711 5709 5707 5704 5702 5700 5697 5695 5693 5691 5689 5687 5685 5683 5681 5678
5707 5709 5710 5711 5712 5713 5715 5715 5716 5717 5718 5718 5719 5719 5719 5719 5719 5718 5718 5717 5716 5715 5714 5712 5711 5709 5707 5705 5703 5701 5698 5696 5694 5692 5690 5688 5687 5685 5683 5681 5679 5677 5675
5704 5705 5706 5708 5709 5710 5710 5711 5712 5712 5713 5713 5713 5713 5713 5713 5712 5712 5712 5711 5710 5709 5708 5707 5706 5704 5702 5700 5698 5696 5694 5692 5690 5688 5686 5684 5683 5681 5679 5677 5676 5674 5672
5701 5702 5703 5704 5705 5706 5707 5707 5708 5708 5708 5708 5708 5708 5707 5707 5707 5707 5706 5706 5705 5704 5703 5702 5701 5699 5697 5695 5693 5691 5690 5688 5686 5685 5683 5681 5679 5678 5676 5674 5673 5671 5669
5699 5699 5700 5701 5702 5702 5703 5703 5703 5703 5703 5703 5703 5703 5703 5702 5702 5702 5702 5701 5701 5700 5699 5697 5696 5695 5693 5691 5689 5688 5686 5684 5683 5681 5679 5678 5676 5675 5673 5672 5670 5669 5667
5696 5697 5697 5698 5698 5699 5699 5699 5699 5699 5699 5699 5699 5699 5699 5698 5698 5698 5698 5697 5697 5696 5695 5693 5692 5691 5689 5688 5686 5684 5682 5681 5679 5678 5676 5675 5673 5672 5671 5670 5668 5667 5666
5694 5694 5695 5695 5695 5696 5696 5696 5696 5696 5696 5695 5695 5695 5695 5695 5695 5694 5694 5694 5693 5692 5691 5690 5689 5687 5686 5684 5682 5681 5679 5678 5676 5675 5673 5672 5671 5670 5669 5668 5667 5666 5665
5692 5692 5693 5693 5693 5693 5693 5693 5693 5693 5693 5692 5692 5692 5692 5691 5691 5691 5691 5691 5690 5689 5688 5687 5685 5684 5682 5681 5679 5678 5676 5675 5673 5672 5671 5670 5669 5668 5667 5666 5665 5664 5663
5690 5690 5691 5691 5691 5690 5690 5690 5690 5690 5690 5690 5690 5689 5689 5689 5689 5689 5689 5689 5688 5687 5686 5684 5683 5681 5680 5678 5677 5675 5673 5672 5671 5670 5669 5668 5667 5667 5666 5665 5664 5664 5663
5689 5689 5689 5689 5689 5689 5688 5688 5688 5688 5688 5688 5688 5688 5688 5688 5688 5688 5688 5687 5686 5685 5684 5682 5681 5679 5678 5676 5674 5673 5671 5670 5669 5668 5667 5667 5666 5666 5665 5664 5664 5663 5663
5689 5688 5688 5688 5688 5688 5688 5688 5688 5688 5688 5688 5688 5688 5688 5688 5688 5688 5687 5686 5685 5684 5683 5681 5679 5678 5676 5674 5673 5671 5670 5669 5668 5667 5666 5666 5665 5665 5665 5664 5664 5664 5663
5689 5689 5688 5688 5688 5688 5688 5688 5688 5688 5688 5688 5688 5688 5688 5688 5688 5688 5687 5686 5685 5684 5682 5680 5679 5677 5675 5673 5672 5670 5669 5668 5667 5666 5666 5666 5665 5665 5665 5665 5664 5664 5664
5690 5690 5690 5689 5689 5689 5689 5689 5689 5689 5689 5690 5690 5689 5689 5689 5689 5688 5687 5686 5685 5684 5682 5680 5679 5677 5675 5673 5672 5670 5669 5668 5668 5667 5666 5666 5666 5666 5666 5666 5666 5665 5665
5692 5692 5691 5691 5691 5691 5690 5690 5691 5691 5691 5691 5691 5691 5691 5690 5690 5689 5688 5687 5686 5685 5683 5681 5679 5677 5676 5674 5673 5672 5671 5670 5669 5668 5668 5668 5668 5667 5667 5667 5667 5667 5666
5696 5695 5694 5694 5694 5693 5693 5693 5693 5693 5693 5693 5693 5693 5692 5692 5692 5691 5690 5689 5688 5686 5685 5683 5681 5679 5678 5676 5675 5673 5672 5672 5671 5670 5670 5670 5669 5669 5669 5669 5669 5668 5667
5699 5699 5698 5698 5697 5697 5697 5696 5696 5696 5696 5696 5695 5695 5695 5694 5694 5693 5692 5691 5690 5689 5687 5686 5684 5682 5681 5679 5678 5676 5675 5674 5674 5673 5673 5672 5672 5672 5671 5671 5670 5669 5669
5703 5703 5702 5702 5701 5701 5700 5700 5700 5699 5699 5699 5698 5698 5697 5697 5696 5696 5695 5694 5693 5691 5690 5688 5687 5685 5684 5682 5681 5680 5679 5678 5677 5676 5676 5675 5675 5674 5673 5673 5672 5671 5669